#timestamp,LO_Frequency,Hit,StdDev 
1516914015.7,286047001.3,P
1516914035.6,286047003.8,P
1516914055.4,286047001.3,N
1516914075.2,286047003.1,N
1516914095.1,286047001.4,N
1516914096.0,286047001.4,N
1516914115.8,286047001.4,N
1516914135.7,286047004.3,Y
1516914155.5,286047003.8,P
1516914175.3,286047004.0,P
1516914195.2,286047005.9,P
1516914215.0,286047007.6,Y
1516914215.9,286047007.6,P
1516914235.8,286047002.0,N
1516914255.6,286047004.2,N
1516914275.4,286047001.7,N
1516914295.3,286047004.4,N
1516914315.1,286047003.0,N
1516914335.8,286047005.9,Y
1516914355.7,286047000.9,P
1516914375.5,286047000.6,N
1516914395.4,286047000.3,N
1516914415.2,286047001.0,N
1516914435.0,286047000.4,N
1516914435.9,286047000.4,N
1516914455.8,286047000.5,N
1516914475.6,286046998.6,N
1516914495.5,286046998.9,N
1516914515.3,286047001.0,N
1516914535.1,286047000.6,N
1516914555.9,286046999.8,N
1516914575.7,286046999.9,N
1516914595.5,286047002.0,N
1516914615.4,286047000.6,N
1516914635.2,286047002.1,N
1516914655.1,286047001.6,N
1516914656.0,286047001.6,N
1516914675.8,286047002.1,N
1516914695.6,286047002.0,N
1516914715.5,286047004.1,Y
1516914735.3,286047003.6,P
1516914755.1,286047003.4,N
1516914775.9,286047004.1,P
1516914795.7,286047003.3,N
1516914815.6,286047002.9,N
1516914835.4,286047003.1,Y
1516914855.2,286047000.4,P
1516914875.1,286046999.9,N
1516914876.0,286046999.9,N
1516914895.8,286046999.7,N
1516914915.7,286046999.9,N
1516914935.5,286047000.5,N
1516914955.3,286046999.9,N
1516914975.2,286047000.1,N
1516914995.0,286047000.8,N
1516914995.9,286047000.8,N
1516915015.7,286046998.5,N
1516915035.6,286046998.5,N
1516915055.4,286047000.4,N
1516915075.3,286046999.9,N
1516915095.1,286047001.5,N
1516915096.0,286047001.5,N
1516915115.8,286047000.2,N
1516915135.7,286047002.3,N
1516915155.5,286047002.2,N
1516915175.3,286047001.6,N
1516915195.2,286047006.0,Y
1516915215.0,286047003.3,P
1516915215.9,286047003.3,N
1516915235.8,286047004.3,P
1516915255.6,286047001.7,N
1516915275.4,286047001.9,N
1516915295.3,286047001.4,N
1516915315.1,286047001.7,N
1516915335.9,286047004.3,Y
1516915355.7,286047000.0,P
1516915375.5,286046998.6,N
1516915395.4,286046998.7,N
1516915415.2,286047000.3,N
1516915435.1,286046999.9,N
1516915436.0,286046999.9,N
1516915455.8,286047004.3,Y
1516915475.6,286047002.1,P
1516915495.5,286047003.1,N
1516915515.3,286047004.4,P
1516915535.1,286047004.0,N
1516915555.9,286047003.0,N
1516915575.7,286047004.6,Y
1516915595.6,286047005.6,P
1516915615.4,286047005.2,P
1516915635.2,286047005.2,P
1516915655.1,286047005.2,Y
1516915656.0,286047005.2,P
1516915675.8,286047000.6,N
1516915695.7,286046998.1,N
1516915715.5,286047000.9,N
1516915735.3,286047002.7,N
1516915755.2,286046999.7,N
1516915775.0,286046998.3,N
1516915775.9,286046998.3,N
1516915795.7,286046999.6,N
1516915815.6,286046996.6,N
1516915835.4,286046996.5,N
1516915855.3,286046998.1,N
1516915875.1,286046999.9,N
1516915895.8,286047002.8,N
1516915915.7,286047002.3,N
1516915935.5,286046999.7,N
1516915955.4,286047002.4,N
1516915975.2,286047000.0,N
1516915995.0,286047000.5,N
1516915995.9,286047000.5,N
1516916015.8,286047001.5,N
1516916035.6,286047001.6,N
1516916055.4,286047002.6,N
1516916075.3,286047000.4,N
1516916095.1,286047000.3,N
1516916115.9,286047002.4,N
1516916135.7,286047001.3,N
1516916155.5,286047002.5,N
1516916175.4,286047001.6,N
1516916195.2,286047002.8,N
1516916215.0,286046999.8,N
1516916216.0,286046999.8,N
1516916235.8,286046999.8,N
1516916255.6,286047002.4,N
1516916275.5,286047000.6,N
1516916295.3,286047002.3,N
1516916315.1,286047000.2,N
1516916335.9,286047002.4,N
1516916355.7,286047001.7,N
1516916375.6,286047001.8,N
1516916395.4,286047002.1,N
1516916415.2,286047002.3,N
1516916435.1,286047001.5,N
1516916436.0,286047001.5,N
1516916455.8,286047001.4,N
1516916475.6,286047005.6,Y
1516916495.5,286047005.6,P
1516916515.3,286047005.9,N
1516916535.2,286047003.2,N
1516916555.9,286047003.0,N
1516916575.7,286047005.1,N
1516916595.6,286047005.1,Y
1516916615.4,286047002.2,P
1516916635.2,286047000.3,N
1516916655.1,286047002.6,N
1516916656.0,286047002.6,N
1516916675.8,286046999.8,N
1516916695.7,286047001.6,N
1516916715.5,286047004.3,Y
1516916735.3,286047000.3,P
1516916755.2,286047000.7,N
1516916775.0,286047000.6,N
1516916775.9,286047000.6,N
1516916795.8,286046999.9,N
1516916815.6,286047000.0,N
1516916835.4,286046999.9,N
1516916855.3,286047000.3,N
1516916875.1,286047002.6,Y
1516916895.9,286047001.0,P
1516916915.7,286046999.9,N
1516916935.5,286047002.4,P
1516916955.4,286047000.3,N
1516916975.2,286047002.2,N
1516916995.0,286047003.9,Y
1516916995.9,286047003.9,P
1516917015.8,286047002.4,N
1516917035.6,286047001.4,N
1516917055.5,286047001.6,N
1516917075.3,286047001.4,N
1516917095.1,286047001.4,N
1516917115.9,286047001.3,N
1516917135.7,286047003.9,Y
1516917155.5,286046998.6,P
1516917175.4,286046998.1,N
1516917195.2,286046998.2,N
1516917215.1,286046998.3,N
1516917216.0,286046998.3,N
1516917235.8,286047000.4,N
1516917255.6,286047000.4,N
1516917275.5,286047002.1,N
1516917295.3,286047000.4,N
1516917315.1,286046999.9,N
1516917335.9,286047002.3,N
1516917355.7,286046999.9,N
1516917375.6,286046999.7,N
1516917395.4,286047002.8,N
1516917415.2,286047000.2,N
1516917435.1,286047000.4,N
1516917436.0,286047000.4,N
1516917455.8,286046999.9,N
1516917475.6,286046999.8,N
1516917495.5,286047000.2,N
1516917515.3,286047002.7,N
1516917535.2,286047002.1,N
1516917555.9,286047001.8,N
1516917575.7,286047001.7,N
1516917595.6,286047003.0,N
